Погода в Обильном

Россия / Республика Калмыкия     47°30′13″N   44°24′51″E
темп.,
°C
ветер,
м/с
пор.,
м/с
влажн.,
%
обл.,
%
осадки,
мм/ч
давл.,
гПа
погр.,
м
13 августа, сб
сб1300:00+29юв3723100 0.0 1016156
03:00+27всв3326100 0.0 101637
06:00+27всв3625100 0.0 1016178
09:00+31в7926100 0.0 1015710
12:00+36вюв781694 0.0 10143510
15:00+37в7915100 0.0 10123980
18:00+35в71017100 0.0 1011745
21:00+33в91419100 0.0 10121020
14 августа, вс
вс1400:00+29всв612235 0.0 1012367
03:00+27всв6122426 0.0 1012368
06:00+26св611275 0.0 1012355
09:00+32в810184 0.0 1011895
12:00+37в910143 0.0 10103165
15:00+38в8913100 0.0 10083875
18:00+37вюв6814100 0.0 10071430
21:00+32в341914 0.0 100964
15 августа, пн
пн1500:00+30всв4823100 0.0 1010167
03:00+28в5122444 0.0 1010366
06:00+29в6132459 0.0 1011550
09:00+34в9121865 0.0 10111449
12:00+37в10111612 0.0 10102740
15:00+37в101115100 0.0 10103267
18:00+36всв911185 0.0 10101919
21:00+31всв101520100 0.0 1012793
16 августа, вт
вт1600:00+29всв8152092 0.0 1012520
03:00+25св612255 0.0 1012308
06:00+24всв6123034 0.0 1013306
09:00+32в810235 0.0 1012833
12:00+37в910164 0.0 10112179
15:00+39в9111433 0.0 10103509
18:00+37всв912165 0.0 10101493
21:00+32в711201 0.0 1011262
17 августа, ср
ср1700:00+29в612230 0.0 1011237
03:00+27в411270 0.0 1011222
06:00+26в412291 0.0 1011280
09:00+34вюв811170 0.0 10101058
12:00+40юв912120 0.0 10082785
15:00+41юв1111120 0.0 10063251
18:00+38юв1112150 0.0 10072128
21:00+33вюв814210 0.0 1008664